Terug naar catalogus

STARLINK-34444

ActiefCommunicatieVLEO
NORAD 64369·PAYLOAD·🇺🇸 United States

Gelanceerd Jun 13, 2025 vanaf Vandenberg Space Force Base

Loading…

Volgende Passages (komende 24 uur)

TLE

VersSource: CelesTrak SupGP

Epoch: Sep 14, 2026, 22:33 UTC

1 64369C 25126AB  26257.94006944  .00071624  00000+0  24284-2 0  2570
2 64369  69.9994 275.6859 0003727 268.0904 315.7779 15.30374663    14

Volg STARLINK-34444 in realtime met AllMySat

Download on the App Store